Home > Weather > Cloppenburg > Past weeks

Flag for Germany Weather for the Past 2 Weeks in Cloppenburg, Lower Saxony, Germany

Now
50 °F

Cool.


Feels Like: 46 °F
Forecast: 45 / 48 °F
Wind: 9 mph from Southwest

Location: Meppen-Mil

Current Time: Feb 6, 2016 at 12:00:25 AM

Latest Report: Feb 5, 2016 at 11:20 PM


Visibility: N/A

Pressure: 30.01 "Hg

Humidity: 82%

Dew point: 45 °F

Location of CloppenburgLocation

Historic Weather in Cloppenburg — Graph

°F

Cloppenburg Temperature Yesterday

Maximum temperature yesterday: 50 °F (at 2:20 PM)
Minimum temperature yesterday: 39 °F (at 12:20 AM)
Average temperature yesterday: 44 °F

High & Low Weather Summary for the Past Weeks

 TemperatureHumidityPressure
High57 °F (Jan 25, 3:20 PM)100% (Jan 21, 11:20 PM)30.48 "Hg (Jan 21, 11:20 PM)
Low21 °F (Jan 22, 5:20 AM)54% (Feb 2, 12:20 PM)29.59 "Hg (Jan 30, 1:20 PM)
Average44 °F82%30.04 "Hg
* Reported Jan 21 10:20 PM — Feb 5 10:20 PM, Cloppenburg, Weather by CustomWeather, © 2016

Note: Actual official high and low records may vary slightly from our data, if they occured in-between our weather recording intervals... More about our weather records

Advertising

Cloppenburg Weather History for the Previous 24 Hours

 ConditionsComfort  
Time TempWeatherWind HumidityBarometerVisibility
10:20 PM
Fri, Feb 5
50 °FCool.9 mph82%30.01 "HgN/A
9:20 PM48 °FCool.9 mph94%30.04 "HgN/A
8:20 PM48 °FCool.6 mph94%30.04 "Hg3 mi
7:20 PM50 °FCool.7 mph82%30.07 "HgN/A
6:20 PM48 °FCool.6 mph94%30.07 "Hg5 mi
5:20 PM48 °FCool.6 mph87%30.07 "Hg5 mi
4:20 PM48 °FCool.8 mph87%30.07 "Hg2 mi
3:20 PM50 °FCool.7 mph82%30.09 "Hg3 mi
2:20 PM50 °FCool.7 mph82%30.09 "Hg5 mi
1:20 PM46 °FFog.6 mph93%30.12 "Hg2 mi
12:50 PM46 °FDrizzle. Fog.8 mph93%30.12 "Hg1 mi
12:20 PM45 °FFog.8 mph93%30.12 "Hg1 mi
11:20 AM43 °FDrizzle. Fog.8 mph93%30.12 "Hg1 mi
10:50 AM43 °FDrizzle. Fog.8 mph93%30.12 "Hg1 mi
10:20 AM41 °FFog.8 mph93%30.12 "Hg2 mi
9:20 AM41 °FDrizzle. Fog.5 mph87%30.15 "Hg3 mi
8:20 AM39 °FLight rain. Passing clouds.5 mph93%30.15 "Hg6 mi
7:20 AM39 °FLight rain. Passing clouds.5 mph87%30.18 "HgN/A
6:20 AM39 °FLight rain. Passing clouds.5 mph87%30.18 "HgN/A
5:20 AM39 °FSprinkles. Partly cloudy.6 mph87%30.21 "HgN/A
4:20 AM39 °FSprinkles. Partly cloudy.5 mph87%30.21 "HgN/A
3:20 AM39 °FSprinkles. Partly cloudy.3 mph87%30.24 "HgN/A
2:20 AM39 °FChilly.3 mph87%30.24 "HgN/A
1:20 AM39 °FChilly.3 mph93%30.24 "HgN/A
12:20 AM39 °FChilly.3 mph93%30.24 "HgN/A
Weather by CustomWeather, © 2016

See weather overviewHow to use our weather pages